Overview Statistics Trail Chart Weather Telemetry Raw packets
 

This is the latest recevied weather packets stored in our database for station/object N7ZEF. If no packets are shown the sender has not sent any weather packets the latest 10 day(s).

<< 43 44 45 46 47 48 49 >>
Time Temp. Humidity Pressure Rain* Wind** Luminosity Snow
1777510684 8.89° C 41% 1020.7 hPa 0 mm - - -
1777510083 9.44° C 39% 1020.7 hPa 0 mm - - -
1777509482 9.44° C 39% 1020.6 hPa 0 mm - - -
1777508880 9.44° C 39% 1020.8 hPa 0 mm - - -
1777508279 9.44° C 37% 1020.7 hPa 0 mm - - -
1777507678 9.44° C 34% 1020.6 hPa 0 mm - - -
1777507076 9.44° C 34% 1020.7 hPa 0 mm - - -
1777506475 10° C 36% 1020.6 hPa 0 mm - - -
1777505873 10° C 34% 1020.6 hPa 0 mm - - -
1777505272 10° C 36% 1020.4 hPa 0 mm - - -
1777504671 10° C 36% 1020.4 hPa 0 mm - - -
1777504069 10° C 36% 1020.6 hPa 0 mm - - -
1777503468 10° C 38% 1020.6 hPa 0 mm - - -
1777502867 10° C 34% 1020.6 hPa 0 mm - - -
1777502265 10° C 34% 1020.4 hPa 0 mm - - -
1777501664 10.56° C 31% 1020.4 hPa 0 mm - - -
1777501062 11.11° C 28% 1020.4 hPa 0 mm - - -
1777500461 11.67° C 27% 1020.6 hPa 0 mm - - -
1777499860 11.67° C 27% 1020.7 hPa 0 mm - - -
1777499258 11.67° C 26% 1021 hPa 0 mm - - -
1777498657 11.11° C 30% 1021 hPa 0 mm - - -
1777498056 11.11° C 30% 1021.2 hPa 0 mm - - -
1777497454 11.11° C 32% 1021.2 hPa 0 mm - - -
1777496853 10.56° C 33% 1021.3 hPa 0 mm - - -
1777496251 10° C 34% 1021.5 hPa 0 mm - - -

* Rain latest hour (hover to see other rain measurements)
** Current wind speed in m/s (hover to see current wind gust speed)